KUIPER-00542

导读

KUIPER-00542(NORAD编号69611)是亚马逊“柯伊伯计划”低轨通信卫星星座的成员,于2025年9月25日随联合发射联盟Atlas V 551火箭执行的KA-03任务,从卡纳维拉尔角太空军基地发射升空,属于该批次部署的27颗卫星之一。 卫星初始部署于465公里高度轨道,后续将抬升至柯伊伯星座标准轨道层(590/610/630公里),主要承担全球高速低延迟宽带通信服务任务,为偏远地区、航空机载网络等场景提供接入能力。截至2026年6月,该卫星运行状态正常,是柯伊伯星座已部署的129颗在轨卫星之一。

基本信息
目录编号:
69611
目录名称:
KUIPER-00542
国际标识:
2026-140V
轨道中心:
EARTH
卫星名称:
KUIPER-00542
卫星全名:
KUIPER-00542
卫星状态:
在轨 (已飞行70 天)
发射日期:
2026-06-17 UTC
国别 :
美国 (US)
星等 :
--
轨道信息
数据来源 国际轨道数据
星历时间: 2026-08-26T05:40:30+0800
12小时前
查看轨道信息
半长轴: 6832.361km
偏心率: 0.0008377
轨道倾角: 51.879°
近地点辐角 89.699°
升交点赤经 61.250°
平近点角 270.496°
近地点: 448.5km
远地点: 459.948km
周期: 93.673分钟
每日圈数: 15.372573
详细信息
使用方式:
暂无
2D轨道图
3D轨道图
轨道高度分析图
轨道倾角分析图
轨道综合分析图
查看轨道综合分析图